Location: Little Baddow
(51.7333°N, 0.5667°E)
Time: 02:15:18
(UTC+00:00)

COSMOS 2428 - Pass Details

Date: 08 November 2025
Orbit: 847 x 852 km, 70.9° (Epoch: 13 December)

Event Time Altitude Azimuth Distance (km) Brightness Sun altitude
Exits shadow 04:41:24 - 199° (SSW) 2,625 5.1 -22.2°
Reaches altitude 10° 04:41:49 10° 199° (SSW) 2,467 4.9 -22.2°
Maximum altitude 04:47:27 72° 117° (ESE) 894 2.9 -21.3°
Drops below altitude 10° 04:53:07 10° 34° (NNE) 2,481 5.5 -20.4°
Sets 04:55:35 0° 32° (NNE) 3,421 6.3 -20.1°
